This is the latest recevied weather packets stored in our database for station/object DM4XI-13. If no packets are shown the sender has not sent any weather packets the latest 10 day(s).
| Time | Temp. | Humidity | Pressure | Rain* | Wind** | Luminosity | Snow |
|---|---|---|---|---|---|---|---|
| 1777713914 | 20.56° C | 40% | 1020.8 hPa | 0 mm | 1.34 m/s, 170° | 562 W/m² | - |
| 1777713853 | 20.56° C | 37% | 1021.1 hPa | 0 mm | 0.45 m/s, 201° | 562 W/m² | - |
| 1777713792 | 20.56° C | 40% | 1021.1 hPa | 0 mm | 0.89 m/s, 198° | 560 W/m² | - |
| 1777713731 | 20.56° C | 38% | 1020.8 hPa | 0 mm | 2.24 m/s, 176° | 558 W/m² | - |
| 1777713670 | 20.56° C | 39% | 1020.9 hPa | 0 mm | 0.89 m/s, 178° | 557 W/m² | - |
| 1777713609 | 20.56° C | 39% | 1020.9 hPa | 0 mm | 0.89 m/s, 155° | 555 W/m² | - |
| 1777713548 | 20.56° C | 40% | 1020.9 hPa | 0 mm | 0 m/s | 555 W/m² | - |
| 1777713486 | 20.56° C | 38% | 1021.2 hPa | 0 mm | 0.89 m/s, 170° | 553 W/m² | - |
| 1777713425 | 20.56° C | 38% | 1021.1 hPa | 0 mm | 1.34 m/s, 162° | 551 W/m² | - |
| 1777713364 | 20.56° C | 39% | 1021 hPa | 0 mm | 0.89 m/s, 181° | 550 W/m² | - |
| 1777713303 | 20.56° C | 38% | 1021.1 hPa | 0 mm | 1.34 m/s, 200° | 549 W/m² | - |
| 1777713242 | 20.56° C | 38% | 1021.1 hPa | 0 mm | 1.79 m/s, 172° | 547 W/m² | - |
| 1777713181 | 20.56° C | 40% | 1021.2 hPa | 0 mm | 0.89 m/s, 150° | 546 W/m² | - |
| 1777713121 | 20.56° C | 41% | 1021 hPa | 0 mm | 0.89 m/s, 152° | 544 W/m² | - |
| 1777713059 | 20° C | 40% | 1021.2 hPa | 0 mm | 1.34 m/s, 161° | 543 W/m² | - |
| 1777712999 | 20° C | 39% | 1021.3 hPa | 0 mm | 0 m/s | 541 W/m² | - |
| 1777712938 | 20° C | 41% | 1021.1 hPa | 0 mm | 0.89 m/s, 186° | 540 W/m² | - |
| 1777712876 | 20° C | 40% | 1021.3 hPa | 0 mm | 0.89 m/s, 178° | 538 W/m² | - |
| 1777712816 | 20° C | 39% | 1021 hPa | 0 mm | 0.45 m/s, 162° | 536 W/m² | - |
| 1777712754 | 20° C | 39% | 1021.2 hPa | 0 mm | 0.89 m/s, 162° | 535 W/m² | - |
| 1777712694 | 20° C | 39% | 1021.3 hPa | 0 mm | 1.79 m/s, 170° | 534 W/m² | - |
| 1777712632 | 20° C | 39% | 1021.1 hPa | 0 mm | 0.89 m/s, 156° | 532 W/m² | - |
| 1777712571 | 20° C | 38% | 1021 hPa | 0 mm | 1.34 m/s, 200° | 531 W/m² | - |
| 1777712510 | 20° C | 40% | 1021.2 hPa | 0 mm | 1.34 m/s, 144° | 530 W/m² | - |
| 1777712449 | 20° C | 41% | 1021.1 hPa | 0 mm | 0.89 m/s, 190° | 529 W/m² | - |
* Rain latest hour (hover to see other rain measurements)
** Current wind speed in m/s (hover to see current wind gust speed)